Location: Nitra
(48.3167°N, 18.0833°E)
Time: 13:26:02
(UTC+02:00)

ISS - Visible Passes

Search period start: 14 May 2021 00:00
Search period end: 24 May 2021 00:00
Orbit: 417 x 422 km, 51.6° (Epoch: 14 May)

Date Brightness Start Highest point End Pass type
(mag) Time Alt. Az. Time Alt. Az. Time Alt. Az.
14 May -2.7 01:18:38 32° NW 01:19:43 45° N 01:23:00 10° ENE visible
14 May -3.5 02:53:26 10° WNW 02:56:49 72° NNE 03:00:12 10° ESE visible
14 May -2.8 04:30:29 10° W 04:33:26 28° SW 04:36:22 10° SSE visible
14 May -2.0 21:17:02 10° S 21:18:55 14° SE 21:20:49 10° ESE visible
14 May -3.9 22:51:53 10° WSW 22:55:15 70° SSE 22:58:37 10° ENE visible
15 May -2.8 00:28:55 10° W 00:32:12 48° N 00:35:29 10° ENE visible
15 May -3.2 02:05:59 10° WNW 02:09:20 58° NNE 02:12:40 10° E visible
15 May -3.4 03:42:53 10° WNW 03:46:06 41° SSW 03:49:18 10° SE visible
15 May -3.6 22:04:36 10° SW 22:07:51 48° SSE 22:11:07 10° ENE visible
15 May -3.0 23:41:21 10° W 23:44:40 54° NNW 23:48:00 10° ENE visible
16 May -2.9 01:18:30 10° WNW 01:21:49 50° N 01:25:07 10° E visible
16 May -3.8 02:55:23 10° WNW 02:58:43 61° SSW 03:02:03 10° SE visible
16 May -3.0 21:17:27 10° SSW 21:20:29 32° SE 21:23:32 10° E visible
16 May -3.4 22:53:49 10° W 22:57:09 66° NNW 23:00:32 10° ENE visible
17 May -2.7 00:31:00 10° WNW 00:34:16 46° N 00:37:33 10° ENE visible
17 May -3.9 02:07:54 10° WNW 02:11:17 86° SSW 02:14:40 10° ESE visible
17 May -2.3 03:45:17 10° W 03:47:44 19° SW 03:50:10 10° S visible
17 May -3.8 22:06:18 10° WSW 22:09:41 85° NNW 22:13:04 10° ENE visible
17 May -2.7 23:43:27 10° WNW 23:46:44 45° N 23:50:00 10° ENE visible
18 May -2.9 01:20:26 10° WNW 01:22:52 43° NW 01:22:52 43° NW visible
18 May -3.8 21:18:53 10° WSW 21:22:13 70° SSE 21:25:35 10° ENE visible
18 May -2.8 22:55:53 10° W 22:59:11 48° N 23:02:28 10° ENE visible
19 May -3.2 00:32:57 10° WNW 00:36:19 58° NNE 00:36:27 57° NNE visible
19 May -3.0 22:08:19 10° W 22:11:38 54° N 22:14:57 10° ENE visible
19 May -2.9 23:45:29 10° WNW 23:48:46 50° N 23:50:16 27° ENE visible
20 May -1.5 01:22:20 10° WNW 01:23:11 17° WNW 01:23:11 17° WNW visible
20 May -3.3 21:20:45 10° W 21:24:06 66° NNW 21:27:28 10° ENE visible
20 May -2.7 22:57:56 10° WNW 23:01:13 46° N 23:04:09 12° ENE visible
21 May -2.7 00:34:50 10° WNW 00:37:06 39° WNW 00:37:06 39° WNW visible
21 May -2.6 22:10:24 10° WNW 22:13:39 45° N 22:16:55 10° ENE visible
21 May -3.6 23:47:22 10° WNW 23:50:44 72° NNE 23:51:02 66° ENE visible
22 May -2.7 21:22:48 10° W 21:26:05 48° N 21:29:22 10° ENE visible
22 May -3.2 22:59:53 10° WNW 23:03:13 58° NNE 23:05:01 24° E visible
23 May -1.7 00:36:47 10° WNW 00:37:57 19° W 00:37:57 19° W visible
23 May -2.9 22:12:22 10° WNW 22:15:40 50° N 22:18:58 10° E visible
23 May -3.3 23:49:14 10° WNW 23:51:57 49° WSW 23:51:57 49° WSW visible
